Time,TemperatureF,DewpointF,PressureIn,WindDirection,WindDirectionDegrees,WindSpeedMPH,WindSpeedGustMPH,Humidity,HourlyPrecipIn,Conditions,Clouds,dailyrainin,SoftwareType,DateUTC
2013-04-30 00:02:00,53.0,50.0,-100.00,SSE,165,0.0,8.0,93,0.00,,,-99.99,,2013-04-30 04:02:00,
2013-04-30 00:12:00,53.0,50.0,-100.00,South,190,0.0,8.0,94,0.00,,,-99.99,,2013-04-30 04:12:00,
2013-04-30 00:22:00,54.0,52.0,-100.00,SE,125,0.0,8.0,95,0.00,,,-99.99,,2013-04-30 04:22:00,
2013-04-30 00:32:00,54.0,52.0,-100.00,ENE,63,1.0,8.0,95,0.00,,,-99.99,,2013-04-30 04:32:00,
2013-04-30 00:42:00,53.0,50.0,-100.00,South,170,0.0,8.0,94,0.00,,,-99.99,,2013-04-30 04:42:00,
2013-04-30 00:52:00,52.0,50.0,-100.00,SE,131,0.0,8.0,94,0.00,,,-99.99,,2013-04-30 04:52:00,
2013-04-30 01:02:00,54.0,52.0,-100.00,South,186,0.0,8.0,95,0.00,,,-99.99,,2013-04-30 05:02:00,
2013-04-30 01:12:00,54.0,52.0,-100.00,SSW,194,1.0,8.0,95,0.00,,,-99.99,,2013-04-30 05:12:00,
2013-04-30 01:22:00,53.0,52.0,-100.00,SSW,200,0.0,8.0,97,0.00,,,-99.99,,2013-04-30 05:22:00,
2013-04-30 01:31:00,54.0,52.0,-100.00,SSE,148,0.0,8.0,97,0.00,,,-99.99,,2013-04-30 05:31:00,
2013-04-30 01:42:00,53.0,52.0,-100.00,South,172,0.0,8.0,97,0.00,,,-99.99,,2013-04-30 05:42:00,
2013-04-30 01:51:00,54.0,52.0,-100.00,SSE,162,0.0,8.0,97,0.00,,,-99.99,,2013-04-30 05:51:00,
2013-04-30 02:02:00,54.0,52.0,-100.00,South,184,0.0,8.0,97,0.00,,,-99.99,,2013-04-30 06:02:00,
2013-04-30 02:12:00,54.0,52.0,-100.00,South,173,0.0,8.0,97,0.00,,,-99.99,,2013-04-30 06:12:00,
2013-04-30 02:21:00,53.0,52.0,-100.00,SSE,156,0.0,8.0,97,0.00,,,-99.99,,2013-04-30 06:21:00,
2013-04-30 02:32:00,54.0,52.0,-100.00,ESE,108,0.0,8.0,97,0.00,,,-99.99,,2013-04-30 06:32:00,
2013-04-30 02:42:00,53.0,52.0,-100.00,ESE,112,0.0,8.0,97,0.00,,,-99.99,,2013-04-30 06:42:00,
2013-04-30 02:52:00,53.0,52.0,-100.00,South,173,0.0,8.0,97,0.00,,,-99.99,,2013-04-30 06:52:00,
2013-04-30 03:01:00,53.0,52.0,-100.00,South,190,0.0,8.0,97,0.00,,,-99.99,,2013-04-30 07:01:00,
2013-04-30 03:11:00,53.0,50.0,-100.00,South,180,0.0,8.0,97,0.00,,,-99.99,,2013-04-30 07:11:00,
2013-04-30 03:21:00,53.0,52.0,-100.00,SSE,163,1.0,8.0,97,0.00,,,-99.99,,2013-04-30 07:21:00,
2013-04-30 03:32:00,52.0,50.0,-100.00,SSE,166,0.0,8.0,97,0.00,,,-99.99,,2013-04-30 07:32:00,
2013-04-30 03:42:00,53.0,52.0,-100.00,South,186,1.0,8.0,97,0.00,,,-99.99,,2013-04-30 07:42:00,
2013-04-30 03:52:00,51.0,48.0,-100.00,SSW,208,0.0,8.0,97,0.00,,,-99.99,,2013-04-30 07:52:00,
2013-04-30 04:02:00,51.0,48.0,-100.00,South,170,0.0,8.0,97,0.00,,,-99.99,,2013-04-30 08:02:00,
2013-04-30 04:11:00,50.0,48.0,-100.00,SE,138,0.0,8.0,97,0.00,,,-99.99,,2013-04-30 08:11:00,
2013-04-30 04:22:00,51.0,48.0,-100.00,SSW,207,0.0,8.0,97,0.00,,,-99.99,,2013-04-30 08:22:00,
2013-04-30 04:32:00,50.0,48.0,-100.00,SSE,149,0.0,8.0,95,0.00,,,-99.99,,2013-04-30 08:32:00,
2013-04-30 04:42:00,50.0,48.0,-100.00,SSW,201,0.0,8.0,97,0.00,,,-99.99,,2013-04-30 08:42:00,
2013-04-30 04:52:00,50.0,48.0,-100.00,NW,304,0.0,8.0,97,0.00,,,-99.99,,2013-04-30 08:52:00,
2013-04-30 05:01:00,49.0,48.0,-100.00,SSE,148,0.0,0.0,97,0.00,,,-99.99,,2013-04-30 09:01:00,
2013-04-30 05:11:00,50.0,48.0,-100.00,SSW,204,0.0,0.0,97,0.00,,,-99.99,,2013-04-30 09:11:00,
2013-04-30 05:22:00,50.0,48.0,-100.00,SE,125,0.0,0.0,97,0.00,,,-99.99,,2013-04-30 09:22:00,
2013-04-30 05:33:00,50.0,48.0,-100.00,South,177,0.0,0.0,97,0.00,,,-99.99,,2013-04-30 09:33:00,
2013-04-30 05:43:00,50.0,48.0,-100.00,SSE,155,0.0,0.0,97,0.00,,,-99.99,,2013-04-30 09:43:00,
2013-04-30 05:52:00,50.0,48.0,-100.00,South,184,0.0,0.0,97,0.00,,,-99.99,,2013-04-30 09:52:00,
2013-04-30 06:03:00,49.0,48.0,-100.00,SSE,165,1.0,1.0,97,0.00,,,-99.99,,2013-04-30 10:03:00,
2013-04-30 06:12:00,50.0,48.0,-100.00,SE,144,0.0,1.0,97,0.00,,,-99.99,,2013-04-30 10:12:00,
2013-04-30 06:22:00,50.0,48.0,-100.00,South,173,1.0,1.0,97,0.00,,,-99.99,,2013-04-30 10:22:00,
2013-04-30 06:32:00,51.0,48.0,-100.00,SSW,197,1.0,1.0,97,0.00,,,-99.99,,2013-04-30 10:32:00,
2013-04-30 06:41:00,51.0,48.0,-100.00,South,173,0.0,1.0,97,0.00,,,-99.99,,2013-04-30 10:41:00,
2013-04-30 06:52:00,51.0,48.0,-100.00,WSW,241,1.0,1.0,97,0.00,,,-99.99,,2013-04-30 10:52:00,
2013-04-30 07:02:00,50.0,48.0,-100.00,SSE,155,1.0,1.0,97,0.00,,,-99.99,,2013-04-30 11:02:00,
2013-04-30 07:11:00,50.0,48.0,-100.00,South,177,0.0,1.0,97,0.00,,,-99.99,,2013-04-30 11:11:00,
2013-04-30 07:21:00,50.0,48.0,-100.00,SE,125,0.0,1.0,97,0.00,,,-99.99,,2013-04-30 11:21:00,
2013-04-30 07:32:00,49.0,48.0,-100.00,SE,125,0.0,1.0,97,0.00,,,-99.99,,2013-04-30 11:32:00,
2013-04-30 07:42:00,50.0,48.0,-100.00,South,169,0.0,1.0,97,0.00,,,-99.99,,2013-04-30 11:42:00,
2013-04-30 07:51:00,50.0,48.0,-100.00,South,175,0.0,1.0,97,0.00,,,-99.99,,2013-04-30 11:51:00,
2013-04-30 08:01:00,50.0,48.0,-100.00,ENE,72,0.0,1.0,97,0.00,,,-99.99,,2013-04-30 12:01:00,
2013-04-30 08:11:00,53.0,52.0,-100.00,ESE,111,0.0,1.0,98,0.00,,,-99.99,,2013-04-30 12:11:00,
2013-04-30 08:22:00,52.0,50.0,-100.00,SSE,168,0.0,1.0,97,0.00,,,-99.99,,2013-04-30 12:22:00,
2013-04-30 08:31:00,53.0,52.0,-100.00,SE,138,0.0,1.0,97,0.00,,,-99.99,,2013-04-30 12:31:00,
2013-04-30 08:41:00,54.0,52.0,-100.00,SSE,148,0.0,1.0,95,0.00,,,-99.99,,2013-04-30 12:41:00,
2013-04-30 08:51:00,55.0,54.0,-100.00,SSE,152,0.0,1.0,95,0.00,,,-99.99,,2013-04-30 12:51:00,
2013-04-30 09:01:00,58.0,55.0,-100.00,South,189,0.0,1.0,93,0.00,,,-99.99,,2013-04-30 13:01:00,
2013-04-30 09:11:00,58.0,54.0,-100.00,ESE,121,1.0,1.0,89,0.00,,,-99.99,,2013-04-30 13:11:00,
2013-04-30 09:21:00,59.0,54.0,-100.00,SSE,159,1.0,1.0,85,0.00,,,-99.99,,2013-04-30 13:21:00,
2013-04-30 09:31:00,59.0,52.0,-100.00,ESE,122,1.0,1.0,81,0.00,,,-99.99,,2013-04-30 13:31:00,
2013-04-30 09:41:00,60.0,54.0,-100.00,ESE,122,1.0,1.0,80,0.00,,,-99.99,,2013-04-30 13:41:00,
2013-04-30 09:52:00,62.0,54.0,-100.00,SSW,213,2.0,2.0,78,0.00,,,-99.99,,2013-04-30 13:52:00,
2013-04-30 10:02:00,62.0,55.0,-100.00,SSE,162,3.0,4.0,80,0.00,,,-99.99,,2013-04-30 14:02:00,
2013-04-30 10:11:00,63.0,54.0,-100.00,SW,234,2.0,4.0,76,0.00,,,-99.99,,2013-04-30 14:11:00,
2013-04-30 10:21:00,63.0,52.0,-100.00,East,86,2.0,4.0,69,0.00,,,-99.99,,2013-04-30 14:21:00,
2013-04-30 10:31:00,65.0,54.0,-100.00,SE,129,2.0,4.0,69,0.00,,,-99.99,,2013-04-30 14:31:00,
2013-04-30 10:41:00,64.0,52.0,-100.00,SSE,155,2.0,4.0,68,0.00,,,-99.99,,2013-04-30 14:41:00,
2013-04-30 10:52:00,64.0,52.0,-100.00,East,86,2.0,4.0,67,0.00,,,-99.99,,2013-04-30 14:52:00,
2013-04-30 11:01:00,66.0,54.0,-100.00,SSE,168,2.0,4.0,66,0.00,,,-99.99,,2013-04-30 15:01:00,
2013-04-30 11:11:00,67.0,54.0,-100.00,ESE,114,2.0,4.0,63,0.00,,,-99.99,,2013-04-30 15:11:00,
2013-04-30 11:21:00,66.0,52.0,-100.00,South,172,5.0,8.0,62,0.00,,,-99.99,,2013-04-30 15:21:00,
2013-04-30 11:32:00,66.0,50.0,-100.00,NE,43,2.0,8.0,60,0.00,,,-99.99,,2013-04-30 15:32:00,
2013-04-30 11:42:00,67.0,52.0,-100.00,SW,221,2.0,8.0,60,0.00,,,-99.99,,2013-04-30 15:42:00,
2013-04-30 11:52:00,69.0,54.0,-100.00,SW,217,5.0,8.0,59,0.00,,,-99.99,,2013-04-30 15:52:00,
2013-04-30 12:02:00,68.0,52.0,-100.00,SSE,153,4.0,8.0,59,0.00,,,-99.99,,2013-04-30 16:02:00,
2013-04-30 12:12:00,69.0,54.0,-100.00,WNW,290,4.0,8.0,60,0.00,,,-99.99,,2013-04-30 16:12:00,
2013-04-30 12:23:00,68.0,50.0,-100.00,West,273,2.0,8.0,56,0.00,,,-99.99,,2013-04-30 16:23:00,
2013-04-30 12:33:00,69.0,54.0,-100.00,South,189,4.0,8.0,59,0.00,,,-99.99,,2013-04-30 16:33:00,
2013-04-30 12:42:00,69.0,52.0,-100.00,SW,231,3.0,8.0,55,0.00,,,-99.99,,2013-04-30 16:42:00,
2013-04-30 12:52:00,71.0,50.0,-100.00,South,170,2.0,8.0,51,0.00,,,-99.99,,2013-04-30 16:52:00,
2013-04-30 13:02:00,69.0,50.0,-100.00,South,176,1.0,8.0,54,0.00,,,-99.99,,2013-04-30 17:02:00,
2013-04-30 13:12:00,70.0,50.0,-100.00,WSW,244,3.0,8.0,53,0.00,,,-99.99,,2013-04-30 17:12:00,
2013-04-30 13:22:00,70.0,50.0,-100.00,SW,218,4.0,8.0,51,0.00,,,-99.99,,2013-04-30 17:22:00,
2013-04-30 13:32:00,70.0,50.0,-100.00,SW,217,4.0,8.0,49,0.00,,,-99.99,,2013-04-30 17:32:00,
2013-04-30 13:42:00,73.0,50.0,-100.00,SE,146,3.0,8.0,46,0.00,,,-99.99,,2013-04-30 17:42:00,
2013-04-30 13:52:00,71.0,48.0,-100.00,SW,214,3.0,8.0,47,0.00,,,-99.99,,2013-04-30 17:52:00,
2013-04-30 14:01:00,72.0,48.0,-100.00,SSW,201,4.0,8.0,46,0.00,,,-99.99,,2013-04-30 18:01:00,
2013-04-30 14:11:00,71.0,50.0,-100.00,SSE,152,4.0,8.0,50,0.00,,,-99.99,,2013-04-30 18:11:00,
2013-04-30 14:22:00,73.0,48.0,-100.00,SE,132,2.0,8.0,45,0.00,,,-99.99,,2013-04-30 18:22:00,
2013-04-30 14:32:00,73.0,50.0,-100.00,ENE,74,2.0,8.0,45,0.00,,,-99.99,,2013-04-30 18:32:00,
2013-04-30 14:42:00,71.0,48.0,-100.00,SSE,166,2.0,8.0,47,0.00,,,-99.99,,2013-04-30 18:42:00,
2013-04-30 14:52:00,73.0,48.0,-100.00,NW,323,1.0,8.0,44,0.00,,,-99.99,,2013-04-30 18:52:00,
2013-04-30 15:01:00,73.0,50.0,-100.00,South,184,2.0,8.0,44,0.00,,,-99.99,,2013-04-30 19:01:00,
2013-04-30 15:11:00,75.0,50.0,-100.00,East,84,2.0,8.0,41,0.00,,,-99.99,,2013-04-30 19:11:00,
2013-04-30 15:22:00,74.0,50.0,-100.00,South,183,3.0,8.0,44,0.00,,,-99.99,,2013-04-30 19:22:00,
2013-04-30 15:32:00,74.0,50.0,-100.00,SSW,213,3.0,8.0,44,0.00,,,-99.99,,2013-04-30 19:32:00,
2013-04-30 15:42:00,74.0,48.0,-100.00,WSW,242,3.0,8.0,41,0.00,,,-99.99,,2013-04-30 19:42:00,
2013-04-30 15:52:00,75.0,48.0,-100.00,South,183,3.0,8.0,41,0.00,,,-99.99,,2013-04-30 19:52:00,
2013-04-30 16:02:00,75.0,46.0,-100.00,SSW,193,3.0,8.0,38,0.00,,,-99.99,,2013-04-30 20:02:00,
2013-04-30 16:11:00,74.0,48.0,-100.00,SSW,203,5.0,8.0,41,0.00,,,-99.99,,2013-04-30 20:11:00,
2013-04-30 16:22:00,74.0,48.0,-100.00,ENE,60,4.0,8.0,41,0.00,,,-99.99,,2013-04-30 20:22:00,
2013-04-30 16:32:00,74.0,46.0,-100.00,East,87,3.0,8.0,40,0.00,,,-99.99,,2013-04-30 20:32:00,
2013-04-30 16:42:00,74.0,48.0,-100.00,ESE,108,3.0,8.0,40,0.00,,,-99.99,,2013-04-30 20:42:00,
2013-04-30 16:52:00,76.0,48.0,-100.00,South,169,2.0,8.0,38,0.00,,,-99.99,,2013-04-30 20:52:00,
2013-04-30 17:02:00,75.0,46.0,-100.00,SE,125,4.0,8.0,38,0.00,,,-99.99,,2013-04-30 21:02:00,
2013-04-30 17:11:00,73.0,48.0,-100.00,NNE,31,3.0,8.0,41,0.00,,,-99.99,,2013-04-30 21:11:00,
2013-04-30 17:22:00,76.0,48.0,-100.00,ENE,77,2.0,8.0,38,0.00,,,-99.99,,2013-04-30 21:22:00,
2013-04-30 17:32:00,76.0,46.0,-100.00,East,80,2.0,8.0,38,0.00,,,-99.99,,2013-04-30 21:32:00,
2013-04-30 17:42:00,75.0,46.0,-100.00,South,190,1.0,8.0,38,0.00,,,-99.99,,2013-04-30 21:42:00,
2013-04-30 17:53:00,75.0,50.0,-100.00,South,179,2.0,8.0,42,0.00,,,-99.99,,2013-04-30 21:53:00,
2013-04-30 18:02:00,76.0,50.0,-100.00,SE,131,1.0,8.0,40,0.00,,,-99.99,,2013-04-30 22:02:00,
2013-04-30 18:12:00,75.0,50.0,-100.00,ESE,110,2.0,8.0,41,0.00,,,-99.99,,2013-04-30 22:12:00,
2013-04-30 18:23:00,74.0,48.0,-100.00,SSE,162,2.0,8.0,40,0.00,,,-99.99,,2013-04-30 22:23:00,
2013-04-30 18:33:00,74.0,46.0,-100.00,SE,146,6.0,8.0,40,0.00,,,-99.99,,2013-04-30 22:33:00,
2013-04-30 18:42:00,74.0,46.0,-100.00,South,184,4.0,8.0,38,0.00,,,-99.99,,2013-04-30 22:42:00,
2013-04-30 18:52:00,75.0,46.0,-100.00,ESE,114,3.0,8.0,38,0.00,,,-99.99,,2013-04-30 22:52:00,
2013-04-30 19:02:00,75.0,48.0,-100.00,South,176,2.0,8.0,40,0.00,,,-99.99,,2013-04-30 23:02:00,
2013-04-30 19:12:00,74.0,48.0,-100.00,SSE,149,2.0,8.0,40,0.00,,,-99.99,,2013-04-30 23:12:00,
2013-04-30 19:22:00,74.0,48.0,-100.00,ESE,111,3.0,8.0,41,0.00,,,-99.99,,2013-04-30 23:22:00,
2013-04-30 19:32:00,74.0,48.0,-100.00,ENE,73,2.0,8.0,41,0.00,,,-99.99,,2013-04-30 23:32:00,
2013-04-30 19:42:00,73.0,48.0,-100.00,South,186,2.0,8.0,41,0.00,,,-99.99,,2013-04-30 23:42:00,
2013-04-30 19:52:00,74.0,46.0,-100.00,SE,128,2.0,8.0,40,0.00,,,-99.99,,2013-04-30 23:52:00,
2013-04-30 20:02:00,73.0,48.0,-100.00,SSE,156,2.0,8.0,41,0.00,,,-99.99,,2013-05-01 00:02:00,
2013-04-30 20:11:00,73.0,48.0,-100.00,East,101,1.0,8.0,42,0.00,,,-99.99,,2013-05-01 00:11:00,
2013-04-30 20:22:00,72.0,48.0,-100.00,SSW,211,1.0,8.0,44,0.00,,,-99.99,,2013-05-01 00:22:00,
2013-04-30 20:32:00,71.0,48.0,-100.00,SSE,165,1.0,8.0,46,0.00,,,-99.99,,2013-05-01 00:32:00,
2013-04-30 20:42:00,71.0,50.0,-100.00,ESE,108,0.0,8.0,49,0.00,,,-99.99,,2013-05-01 00:42:00,
2013-04-30 20:51:00,69.0,50.0,-100.00,ESE,112,1.0,8.0,51,0.00,,,-99.99,,2013-05-01 00:51:00,
2013-04-30 21:01:00,69.0,48.0,-100.00,SSE,152,0.0,8.0,51,0.00,,,-99.99,,2013-05-01 01:01:00,
2013-04-30 21:11:00,67.0,48.0,-100.00,East,90,0.0,8.0,54,0.00,,,-99.99,,2013-05-01 01:11:00,
2013-04-30 21:21:00,67.0,50.0,-100.00,SSE,159,1.0,8.0,56,0.00,,,-99.99,,2013-05-01 01:21:00,
2013-04-30 21:32:00,66.0,50.0,-100.00,East,94,0.0,8.0,58,0.00,,,-99.99,,2013-05-01 01:32:00,
2013-04-30 21:42:00,67.0,50.0,-100.00,SSE,153,1.0,8.0,55,0.00,,,-99.99,,2013-05-01 01:42:00,
2013-04-30 21:52:00,66.0,48.0,-100.00,SE,128,1.0,8.0,56,0.00,,,-99.99,,2013-05-01 01:52:00,
2013-04-30 22:02:00,67.0,50.0,-100.00,ESE,117,1.0,8.0,59,0.00,,,-99.99,,2013-05-01 02:02:00,
2013-04-30 22:11:00,66.0,50.0,-100.00,SSE,166,1.0,8.0,58,0.00,,,-99.99,,2013-05-01 02:11:00,
2013-04-30 22:21:00,66.0,50.0,-100.00,ESE,114,1.0,8.0,59,0.00,,,-99.99,,2013-05-01 02:21:00,
2013-04-30 22:32:00,65.0,50.0,-100.00,ESE,112,0.0,8.0,59,0.00,,,-99.99,,2013-05-01 02:32:00,
2013-04-30 22:42:00,65.0,50.0,-100.00,SE,127,1.0,8.0,60,0.00,,,-99.99,,2013-05-01 02:42:00,
2013-04-30 22:52:00,65.0,50.0,-100.00,SE,134,1.0,8.0,60,0.00,,,-99.99,,2013-05-01 02:52:00,
2013-04-30 23:02:00,64.0,50.0,-100.00,South,175,1.0,8.0,62,0.00,,,-99.99,,2013-05-01 03:02:00,
2013-04-30 23:11:00,64.0,50.0,-100.00,South,183,1.0,8.0,62,0.00,,,-99.99,,2013-05-01 03:11:00,
2013-04-30 23:22:00,64.0,50.0,-100.00,SE,127,1.0,8.0,62,0.00,,,-99.99,,2013-05-01 03:22:00,
2013-04-30 23:33:00,64.0,50.0,-100.00,East,101,1.0,8.0,62,0.00,,,-99.99,,2013-05-01 03:33:00,
2013-04-30 23:43:00,64.0,50.0,-100.00,East,101,1.0,8.0,62,0.00,,,-99.99,,2013-05-01 03:43:00,
2013-04-30 23:53:00,63.0,50.0,-100.00,North,8,1.0,8.0,63,0.00,,,-99.99,,2013-05-01 03:53:00,